Regional Weather Roundup
Issued by NWS

Home | Current Version | Previous Version | Graphics & Text | Print | Product List | Glossary On
Versions: 1 2 3 4 5 6 7 8 9 10 11 12 13 14 15 16 17 18 19 20 21 22 23 24 25 26 27 28 29 30 31 32 33 34 35 36 37 38 39 40 41 42 43 44 45 46 47 48 49 50
000
ASUS43 KMKX 020000
RWRWI

WISCONSIN REGIONAL WEATHER ROUNDUP
NATIONAL WEATHER SERVICE MILWAUKEE/SULLIVAN WI
700 PM CDT WED OCT 01 2014

NOTE: "FAIR" INDICATES FEW OR NO CLOUDS BELOW 12,000 FEET WITH NO
SIGNIFICANT WEATHER AND/OR OBSTRUCTIONS TO VISIBILITY.

WIZ001-002-006>008-014>016-023>028-020100-
NORTHWEST WISCONSIN

CITY           SKY/WX    TMP DP  RH WIND       PRES   REMARKS
SUPERIOR ARPT  CLOUDY    52  51  97 CALM      29.80R
ASHLAND        CLOUDY    52  51  97 CALM      29.83R
6HR MIN TEMP:  50; 6HR MAX TEMP:  52; 6HR PCP:  0.60;

HAYWARD        CLOUDY    53  52  96 S7        29.83R
6HR MIN TEMP:  49; 6HR MAX TEMP:  53; 6HR PCP:  0.63;

SIREN          CLOUDY    53  52  95 S5        29.81S
CUMBERLAND     CLOUDY    52  50  93 S5        29.82R FOG
RICE LAKE      CLOUDY    54  52  94 SE5       29.84R FOG
6HR MIN TEMP:  49; 6HR MAX TEMP:  54; 6HR PCP:  0.05;

CHETEK         CLOUDY    54  53  97 SE5       29.83R FOG
LADYSMITH      CLOUDY    55  54  95 S5        29.86R
EAU CLAIRE     NOT AVBL
MENOMONIE      CLOUDY    55  55  97 SE3       29.83R FOG
NEW RICHMOND   CLOUDY    55  55  99 CALM      29.82R FOG
OSCEOLA        CLOUDY    55  55 100 SE3       29.84R FOG
$$

WIZ003>005-009-010-017-018-020100-
NORTH CENTRAL WISCONSIN

CITY           SKY/WX    TMP DP  RH WIND       PRES   REMARKS
MANITOWISH WTR LGT RAIN  53  53 100 S8        29.84S
ARBOR VITAE    RAIN      57  55  93 SE9       29.85S
WOODRUFF       RAIN      57  55  93 SE9       29.85S
RHINELANDER    CLOUDY    55  51  86 SE8       29.87S
6HR MIN TEMP:  53; 6HR MAX TEMP:  57; 6HR PCP:  0.02;

EAGLE RIVER    LGT RAIN  54  49  83 SE8       29.85S
LAND O LAKES   CLOUDY    54  50  87 S7        29.86S
PHILLIPS       DRIZZLE   54  53  95 S6        29.84R
6HR MIN TEMP:  51; 6HR MAX TEMP:  54; 6HR PCP:  0.07;

TOMAHAWK       CLOUDY    55  52  88 CALM      29.86R
MEDFORD        RAIN      55  53  93 S3        29.85R
MERRILL        CLOUDY    59  52  79 SE7       29.85S
$$

WIZ029-030-035-036-043>047-020100-
CENTRAL WISCONSIN

CITY           SKY/WX    TMP DP  RH WIND       PRES   REMARKS
WAUSAU         LGT RAIN  59  52  77 SE13      29.86R
6HR MIN TEMP:  58; 6HR MAX TEMP:  61; 6HR PCP: TRACE;

MOSINEE        LGT RAIN  57  55  94 SE9       29.88R
MARSHFIELD     LGT RAIN  58  54  86 SE7       29.86R
6HR MIN TEMP:  57; 6HR MAX TEMP:  60; 6HR PCP:  0.02;

STEVENS POINT  LGT RAIN  58  52  79 SE6       29.88R
WAUPACA        CLOUDY    62  52  71 SE10      29.89R
WAUTOMA        NOT AVBL
WISC RAPIDS    CLOUDY    59  55  87 SE3       29.88R
6HR MIN TEMP:  59; 6HR MAX TEMP:  62; 6HR PCP: TRACE;

CAMP DOUGLAS   NOT AVBL
$$

WIZ011>013-019>022-031-037>040-048>050-020100-
NORTHEAST WISCONSIN

CITY           SKY/WX    TMP DP  RH WIND       PRES   REMARKS
ANTIGO         CLOUDY    55  52  90 SE9       29.88F
SHAWANO        CLOUDY    58  52  81 SE9       29.91S
6HR MIN TEMP:  58; 6HR MAX TEMP:  66;

OCONTO         CLOUDY    55  53  92 SE9       29.92S
STURGEON BAY   NOT AVBL
GREEN BAY      CLOUDY    56  51  84 S14       29.93R
6HR MIN TEMP:  56; 6HR MAX TEMP:  63;

MANITOWOC      NOT AVBL
APPLETON       NOT AVBL
CLINTONVILLE   CLOUDY    57  52  82 SE7       29.90R
OSHKOSH        CLOUDY    58  51  78 S13       29.90R
6HR MIN TEMP:  58; 6HR MAX TEMP:  65;

$$

WIZ032>034-041-042-053>061-020100-
SOUTHWEST WISCONSIN

CITY           SKY/WX    TMP DP  RH WIND       PRES   REMARKS
LA CROSSE      MOCLDY    64  56  75 E5        29.81S
6HR MIN TEMP:  60; 6HR MAX TEMP:  65; 6HR PCP: TRACE;

SPARTA         CLOUDY    61  56  83 SE3       29.84R
VIROQUA        CLOUDY    64  56  75 SE3       29.83S
BOSCOBEL       CLOUDY    71  56  58 CALM      29.82S
6HR MIN TEMP:  66; 6HR MAX TEMP:  73;

PRAIRIE DU CHI CLOUDY    68  56  65 E3        29.81S
PLATTEVILLE    CLOUDY    69  58  67 S7        29.84S
$$

WIZ056-057-062-063-064-067-068-020100-
SOUTH CENTRAL WISCONSIN

CITY           SKY/WX    TMP DP  RH WIND       PRES   REMARKS
REEDSBURG      CLOUDY    66  55  69 SE3       29.84S
BARABOO/DELLS  CLOUDY    65  53  63 SE6       29.85S
LONE ROCK      NOT AVBL
MINERAL POINT  CLOUDY    68  55  64 SE6       29.85R
MADISON        CLOUDY    66  53  63 SE13      29.87R
6HR MIN TEMP:  66; 6HR MAX TEMP:  70;

MIDDLETON      CLOUDY    69  53  57 SE10      29.86S
WATERTOWN      CLOUDY    60  53  78 SE8       29.89S
MONROE         CLOUDY    66  55  68 E6        29.86R
JANESVILLE     MOCLDY    64  54  68 E9        29.88R
$$

WIZ051-052-058>065-066-070>072-020100-
SOUTHEAST WISCONSIN

CITY           SKY/WX    TMP DP  RH WIND       PRES   REMARKS
MILWAUKEE      CLOUDY    59  53  80 SE9       29.93R
6HR MIN TEMP:  59; 6HR MAX TEMP:  62;

WAUKESHA       CLOUDY    57  50  77 SE8       29.93R
MILWAUKEE/TIMM MOCLDY    59  52  77 SE7       29.94R
RACINE         MOCLDY    60  54  80 SE8       29.94R
6HR MIN TEMP:  60; 6HR MAX TEMP:  62;

BURLINGTON     MOCLDY    58  51  77 SE7       29.91R
KENOSHA        MOCLDY    60  54  80 E7        29.93R
6HR MIN TEMP:  60; 6HR MAX TEMP:  63;

FOND DU LAC    CLOUDY    58  50  75 SE13      29.91R
6HR MIN TEMP:  58; 6HR MAX TEMP:  66;

SHEBOYGAN      CLOUDY    56  51  84 SE7       29.93S
6HR MIN TEMP:  56; 6HR MAX TEMP:  62;

WEST BEND      CLOUDY    55  50  82 SE7       29.92S
JUNEAU         MOCLDY    59  52  76 SE10      29.90S
$$

LSZ147-162-020100-
LAKE SUPERIOR

STATION/POSITION TIME  TEMP    WIND        PRES    WAVE
                       AIR SEA DIR/SP/G            HT/PER
                 (UTC) (F)     (DEG/KT/KT) (MB)    (FT/S)
W MID LAKE BUOY  2250   49 50  340/  4/  6 1010.6R   1
DEVILS ISLAND    2300   50     100/ 10/ 11 1009.6F
SAXON HARBOR     2340   53        CALM     1009.5F
$$

LMZ867-665-643>646-020100-
LAKE MICHIGAN

STATION/POSITION TIME  TEMP    WIND        PRES    WAVE
                       AIR SEA DIR/SP/G            HT/PER
                 (UTC) (F)     (DEG/KT/KT) (MB)    (FT/S)
CHAMBERS ISLAND  2300   56     140/  3/  6 1013.9S
N MID LAKE BUOY  2250   56 58  220/  8/ 10 1014.7R
NORTHPORT PIER   2300   55     160/  4/  9 1014.2S
KEWAUNEE LAKESHO 2300   55     160/ 15/ 19 1012.8F
SHEBOYGAN LAKESH 2300   56 58  140/ 13/ 14 1013.8F
PORT WASHINGTON  2300   59     150/  8/ 13 1013.9F
MILWAUKEE LAKESH 2300   59     140/ 11/ 12   N/A
S MID LAKE BUOY  2250   61 61  100/ 12/ 14 1013.3F   2/ 3
KENOSHA   LAKESH 2300   61     130/ 11/ 14 1012.9S
$$

TC  - TEMPERATURE IN CELSIUS
VSB - VISIBILITY IN STATUTE MILES
WCI - WIND CHILL INDEX
HX  - HEAT INDEX



USA.gov is the U.S. government's official web portal to all federal, state and local government web resources and services.